COSMOS 1275 DEB, 20087

Orbit data source: Space-Track

COSMOS 1275 DEB, 20087 is space debris in LEO originally from a launch on Thu, 04 Jun 1981 UTC launched from the Plesetsk Missile And Space Complex (PKMTR). Debris objects in space refer to the collection of defunct objects orbiting the Earth. Examples of debris include non-operational satellites, rocket bodies, and fragments generated from explosions, collisions, or faulty payload assembly.

Loading next visibility...
Identifier
20087, 1981-053MJ
Orbit
LEO
Country
Flag of CISCIS
Related business
Manufacturer
Unknown
Mission
Spacecraft
Bus & Motor
Unknown
Mass
Unknown
Launch date (UTC)
1981-06-04 (45 years ago)
Launch vehicle
Unknown
Launch site
Plesetsk Missile And Space Complex (PKMTR)
Object type
Payload
Rocket body
Debris
Shape & HBR
Unknown shape, 0.1 m
Radar Cross Section
Small (<0.1 m²)

Expand to show TLE details & history
Last TLE update: 10 hours ago

TLE from 10 hours ago
0 COSMOS 1275 DEB
1 20087U 81053MJ  26063.42249376  .00001732  00000-0  15756-2 0  9997
2 20087  82.9897 214.1711 0101234  53.8629 337.5728 13.80566545840069
Epoch: 2026-03-04T10:08Z
TLE epoch observation values (Epoch: 2026-03-04T10:08:23.460Z)
Latitude
30.7849°
Longitude
-95.93501°
Altitude
897.179 km
Speed
7.441 km/s
True Right ascension
14h 33m 24s
True Declination
30° 38' 12"
Sunlit
Object was in full shadow at epoch
Visualization orbit readout
Latitude
Unknown
Longitude
Unknown
Altitude
Unknown
Speed
Unknown
Apparent Right ascension
Unknown
Apparent Declination
Unknown
Sunlit
N/A
Visualization observer readout
Local Sidereal Time
23:58:25
Azimuth
Unknown
Elevation
Unknown
Doppler factor
Unknown
Orbital elements
Apogee altitude
1,033.294 km
Perigee altitude
884.74 km
Semi-major axis
7,337.154 km
Eccentricity
0.01012
Inclination
82.9897°
RAAN
214.1711°
Arg. of periapsis
53.8629°
True anomaly
337.125°
Mean anomaly
337.5728°
Eccentric anomaly
337.34943°
Mean motion
3.45344 °/min
Orbital period
104.24 mins
BSTAR
0.0015756
Loading maneuver chart data...
Computing Atmospheric mass density...

Documentation

Showing up to 5 results
|